Weather Roundup
Issued by NWS Springfield, MO

Home | Current Version | Previous Version | Text Only | Print | Product List | Glossary On
Versions: 1 2 3 4 5 6 7 8 9 10 11 12 13 14 15 16 17 18 19 20 21 22 23 24 25 26 27 28 29 30 31 32 33 34 35 36 37 38 39 40 41 42 43 44 45 46 47 48 49 50
000
NZUS99 KSGF 300807
HRRSGF

HOURLY WEATHER
NATIONAL WEATHER SERVICE SPRINGFIELD MO
200 AM CST FRI JAN 30 2015

......SGF CWA......

CITY           SKY/WX    TMP DP  RH WIND       PRES   REMARKS
SPRINGFIELD    CLEAR     24  20  84 N8        30.48S WCI  15
JOPLIN         CLEAR     27  24  89 N3        30.53S
WEST PLAINS    CLEAR     31  23  72 N6        30.45R WCI  25
ROLLA          CLEAR     29  21  72 NW10      30.45R WCI  20
OSAGE BEACH    CLEAR     30  19  64 N3        30.50S
BRANSON        CLEAR     30  25  80 NW8       30.49S WCI  23

......SURROUNDING SGF CWA......

CITY           SKY/WX    TMP DP  RH WIND       PRES   REMARKS
CHANUTE        PTCLDY    28  25  88 NW5       30.54S WCI  23
PARSONS        CLEAR     22  20  92 CALM      30.55F
COFFEYVILLE    CLEAR     24  22  91 N7        30.54F WCI  16
EMPORIA        CLEAR     23  22  96 NW3       30.53F
GROVE OK       CLEAR     28  28 100 CALM      30.54S
ROGERS AR      CLEAR     29  25  85 N6        30.50S WCI  23
SILOAM SPRINGS CLEAR     30  19  64 NE3       30.50F
HARRISON AR    CLEAR     30  26  85 W6        30.48R WCI  24
NEAR YELLVILLE CLEAR     34  21  60 NW5       30.48S WCI  30

......KANSAS AND MISSOURI......

CITY           SKY/WX    TMP DP  RH WIND       PRES   REMARKS
KANSAS CTY INT CLEAR     25  21  85 NW7       30.52R WCI  17
DOWNTOWN KC    CLEAR     30  23  75 CALM      30.54R
COLUMBIA       CLEAR     27  21  78 N10       30.49S WCI  17
SEDALIA        CLEAR     28  22  78 NW5       30.52R WCI  23
ST JOSEPH      CLEAR     19  18  95 CALM      30.55R
ST LOUIS       MOCLDY    34  21  60 NW13      30.47R WCI  25
SPIRIT OF STL  MOCLDY    31  21  66 NW10      30.48R WCI  22
KIRKSVILLE     CLEAR     25  21  85 N7        30.50S WCI  17
WICHITA        PTCLDY    27  21  78 NW3       30.52S
TOPEKA         CLEAR     22  19  89 CALM      30.56R
OLATHE         CLEAR     28  23  81 N5        30.52R WCI  23

......TENNESSEE......

CITY           SKY/WX    TMP DP  RH WIND       PRES   REMARKS
MEMPHIS        MOCLDY    41  29  62 N5        30.42S
NASHVILLE      CLOUDY    39  30  70 NW12G18   30.36R WCI  32

......ARKANSAS.......

CITY           SKY/WX    TMP DP  RH WIND       PRES   REMARKS
FAYETTEVILLE   CLEAR     29  25  85 CALM      30.50S
FT SMITH       MOCLDY    38  28  67 N7        30.50S WCI  33
LITTLE ROCK    PTCLDY    36  27  69 N7        30.47S WCI  30

......OKLAHOMA.......

CITY           SKY/WX    TMP DP  RH WIND       PRES   REMARKS
TULSA          MOCLDY    32  27  81 NW5       30.54R WCI  27
PONCA CITY     CLEAR     21  18  88 N3        30.54S
MCALESTER      MOCLDY    39  30  70 N5        30.50F
OKLAHOMA CITY  MOCLDY    39  26  59 NE8       30.50F WCI  33

......IOWA............

CITY           SKY/WX    TMP DP  RH WIND       PRES   REMARKS
DES MOINES     PTCLDY    22  15  75 N13       30.54R WCI  10
QUAD CITIES    CLEAR     24  16  71 NW12      30.47R WCI  13

......ILLINOIS........

CITY           SKY/WX    TMP DP  RH WIND       PRES   REMARKS
QUINCY         CLOUDY    28  18  66 N14       30.49R WCI  17
CHICAGO        CLOUDY    26  12  55 N12       30.37R WCI  16




USA.gov is the U.S. government's official web portal to all federal, state and local government web resources and services.